Weather History for Eastover, SC

Change the Weather History Date:

Friday, August 29, 2014

  Actual Average Record
Temperature  
Mean Temperature 80 °F -  
Max Temperature 95 °F 85 °F 98 °F (1998)
Min Temperature 64 °F 68 °F 64 °F (2014)
Cooling Degree Days 14    
Growing Degree Days 30 (Base 50)    
Moisture  
Dew Point 64 °F    
Average Humidity 66    
Maximum Humidity 96    
Minimum Humidity 30    
Precipitation  
Precipitation 0.00 in - - ()
Sea Level Pressure  
Sea Level Pressure 30.08 in    
Wind  
Wind Speed 2 mph (SSE)    
Max Wind Speed 14 mph    
Max Gust Speed 22 mph    
Visibility 10 miles    
Events      
Averages and records for this station are not official NWS values.
T = Trace of Precipitation, MM = Missing Value Source: NWS Daily Summary

Daily Weather History Graph

Daily Weather History Graph

Search for Another Location

Airport:

Trip Planner

Search our weather history database for the weather conditions in past years. The results will help you decide how hot, cold, wet, or windy it might be!

Date:

Astronomy

Aug. 29, 2014 Rise Set
Actual Time 6:54 AM EDT 7:52 PM EDT
Civil Twilight 6:29 AM EDT 8:18 PM EDT
Nautical Twilight 5:58 AM EDT 8:48 PM EDT
Astronomical Twilight 5:27 AM EDT 9:19 PM EDT
Moon 10:30 AM EDT (8/29) 10:02 PM EDT (8/29)
Length of Visible Light 13h 49m
Length of Day
12h 58m
Waxing Crescent, 15% of the Moon is Illuminated
Aug 29
Waxing Crescent
Sep 2
First Quarter
Sep 8
Full
Sep 15
Last Quarter
Sep 24
New

Hourly Weather History & Observations

Time (EDT) Temp. Heat Index Dew Point Humidity Pressure Visibility Wind Dir Wind Speed Gust Speed Precip Events Conditions
12:58 AM 67.5 °F - 63.1 °F 86% 30.04 in 10.0 mi Calm Calm - N/A   Clear
1:58 AM 66.7 °F - 63.5 °F 89% 30.05 in 10.0 mi Calm Calm - N/A   Clear
2:58 AM 68.5 °F - 62.4 °F 81% 30.04 in 10.0 mi WSW 1.2 mph - N/A   Clear
3:58 AM 65.3 °F - 62.8 °F 92% 30.04 in 10.0 mi Calm Calm - N/A   Clear
4:58 AM 64.8 °F - 63.5 °F 96% 30.05 in 10.0 mi Calm Calm - N/A   Clear
5:58 AM 64.0 °F - 63.0 °F 96% 30.06 in 10.0 mi Calm Calm - N/A   Clear
6:58 AM 64.4 °F - 63.1 °F 96% 30.09 in 10.0 mi Calm Calm - N/A   Clear
7:58 AM 65.8 °F - 64.8 °F 96% 30.09 in 10.0 mi Calm Calm - N/A   Clear
8:58 AM 74.7 °F - 68.4 °F 81% 30.10 in 10.0 mi Calm Calm - N/A   Clear
9:58 AM 81.3 °F 84.5 °F 68.9 °F 66% 30.12 in 10.0 mi WNW 4.6 mph - N/A   Clear
10:58 AM 86.0 °F 88.2 °F 65.8 °F 51% 30.11 in 10.0 mi Variable 3.5 mph - N/A   Clear
11:58 AM 88.2 °F 89.6 °F 64.4 °F 45% 30.10 in 10.0 mi SSW 2.3 mph - N/A   Clear
12:58 PM 90.3 °F 91.5 °F 63.7 °F 41% 30.09 in 10.0 mi Calm Calm - N/A   Clear
1:58 PM 93.4 °F 93.5 °F 60.8 °F 34% 30.08 in 10.0 mi Variable 3.5 mph - N/A   Clear
2:58 PM 94.6 °F 95.5 °F 62.2 °F 34% 30.06 in 10.0 mi Variable 1.2 mph 21.9 mph N/A   Clear
3:58 PM 95.0 °F 94.4 °F 59.2 °F 30% 30.05 in 10.0 mi ESE 13.8 mph 18.4 mph N/A   Clear
4:58 PM 93.9 °F 92.9 °F 57.7 °F 30% 30.05 in 10.0 mi SE 11.5 mph - N/A   Clear
5:58 PM 92.5 °F 91.3 °F 58.1 °F 31% 30.06 in 10.0 mi SSE 9.2 mph - N/A   Clear
6:58 PM 89.6 °F 88.9 °F 59.0 °F 36% 30.06 in 10.0 mi SSE 5.8 mph - N/A   Clear
7:58 PM 82.8 °F 83.3 °F 61.0 °F 48% 30.07 in 9.0 mi Calm Calm - N/A   Clear
8:58 PM 78.8 °F - 67.1 °F 67% 30.09 in 10.0 mi SE 9.2 mph - N/A   Clear
9:58 PM 77.2 °F - 70.7 °F 80% 30.12 in 10.0 mi ESE 5.8 mph - N/A   Clear
10:58 PM 75.6 °F - 71.1 °F 86% 30.13 in 10.0 mi SE 5.8 mph - N/A   Clear
11:58 PM 74.8 °F - 71.4 °F 89% 30.14 in 10.0 mi SE 3.5 mph - N/A   Clear